TimeEDT,TemperatureF,Dew PointF,Humidity,Sea Level PressureIn,VisibilityMPH,Wind Direction,Wind SpeedMPH,Gust SpeedMPH,PrecipitationIn,Events,Conditions,WindDirDegrees,DateUTC
12:53 AM,75.9,72.0,87,30.24,10.0,WSW,5.8,-,N/A,,Clear,240,2013-07-15 04:53:00
1:53 AM,77.0,72.0,84,30.23,10.0,WSW,6.9,-,N/A,,Clear,250,2013-07-15 05:53:00
2:53 AM,77.0,72.0,84,30.23,10.0,West,6.9,-,N/A,,Clear,260,2013-07-15 06:53:00
3:53 AM,78.1,70.0,76,30.23,10.0,West,6.9,-,N/A,,Mostly Cloudy,270,2013-07-15 07:53:00
4:53 AM,77.0,70.0,79,30.23,10.0,West,4.6,-,N/A,,Mostly Cloudy,270,2013-07-15 08:53:00
5:53 AM,77.0,70.0,79,30.23,10.0,West,3.5,-,N/A,,Overcast,270,2013-07-15 09:53:00
6:53 AM,78.1,71.1,79,30.24,10.0,West,6.9,-,N/A,,Overcast,260,2013-07-15 10:53:00
7:53 AM,80.1,72.0,76,30.23,10.0,West,9.2,-,N/A,,Overcast,280,2013-07-15 11:53:00
8:53 AM,81.0,72.0,74,30.23,10.0,WNW,4.6,-,N/A,,Scattered Clouds,300,2013-07-15 12:53:00
9:53 AM,87.1,70.0,57,30.22,10.0,NNW,8.1,-,N/A,,Scattered Clouds,330,2013-07-15 13:53:00
10:53 AM,88.0,70.0,55,30.21,10.0,North,6.9,-,N/A,,Clear,350,2013-07-15 14:53:00
11:53 AM,90.0,70.0,52,30.20,10.0,North,5.8,-,N/A,,Clear,360,2013-07-15 15:53:00
12:53 PM,91.9,71.1,50,30.19,10.0,Variable,6.9,-,N/A,,Clear,0,2013-07-15 16:53:00
1:53 PM,93.0,71.1,49,30.18,10.0,North,9.2,-,N/A,,Partly Cloudy,350,2013-07-15 17:53:00
2:53 PM,91.0,70.0,50,30.17,10.0,NNW,8.1,-,N/A,,Partly Cloudy,330,2013-07-15 18:53:00
3:53 PM,93.0,70.0,47,30.15,10.0,North,10.4,-,N/A,,Partly Cloudy,10,2013-07-15 19:53:00
4:53 PM,91.9,69.1,47,30.14,10.0,North,10.4,-,N/A,,Clear,10,2013-07-15 20:53:00
5:53 PM,91.9,70.0,48,30.14,10.0,North,9.2,-,N/A,,Partly Cloudy,10,2013-07-15 21:53:00
6:53 PM,89.1,71.1,55,30.13,10.0,ENE,4.6,-,N/A,,Overcast,70,2013-07-15 22:53:00
7:53 PM,87.1,71.1,59,30.14,10.0,ENE,4.6,-,N/A,,Mostly Cloudy,70,2013-07-15 23:53:00
8:53 PM,84.9,71.1,63,30.14,10.0,NE,3.5,-,N/A,,Clear,50,2013-07-16 00:53:00
9:53 PM,82.0,71.1,69,30.15,10.0,Calm,Calm,-,N/A,,Clear,0,2013-07-16 01:53:00
10:53 PM,82.9,72.0,69,30.16,10.0,Calm,Calm,-,N/A,,Clear,0,2013-07-16 02:53:00
11:53 PM,82.0,71.1,69,30.15,10.0,Calm,Calm,-,N/A,,Clear,0,2013-07-16 03:53:00